Temp_Advection
nan nan nan nan nan nan nan nan nan nan nan nan nan nan nan nan nan nan nan nan nan nan nan nan nan nan nan nan nan nan nan nan nan nan nan nan nan nan nan nan nan nan nan nan
nan -0 -0 -0 -0 -0 -0 -0 -0 0 -1 -0 -0 -0 -0 -0 -0 -0 -0 0 0 -0 0 0 0 0 -1 0 0 0 -0 -0 0 -0 0 0 0 -0 0 -0 -0 -0 0 nan
nan -1 -0 0 0 -0 -0 -0 -0 -1 -1 -0 -0 -0 -0 -0 -0 -0 -0 -0 -0 -0 -0 -0 -0 -0 -0 -2 -1 -1 -0 -0 -0 -0 0 -0 -0 -0 0 -0 -0 -0 -0 nan
nan -1 -0 -0 -0 -1 -0 -1 -0 -0 -0 -0 -0 -0 -0 -0 -0 -0 -0 -0 -0 -0 -0 -0 -0 -0 0 -1 -1 -1 -0 0 -0 0 0 0 -0 -0 -0 -0 -0 -0 -0 nan
nan -0 -0 -0 -1 -1 -2 -1 -0 0 -0 -1 -0 -0 -0 -0 -0 -0 -0 -0 -0 0 -0 -0 -0 -0 -0 -0 -0 -0 -0 0 -0 -0 0 -0 0 0 0 -0 0 -0 -0 nan
nan 0 -0 -0 -1 -1 -1 -1 -0 -0 0 -0 -0 -0 -0 -0 -0 -0 -0 -0 -0 0 0 0 -0 -0 0 0 -0 -0 0 -0 -0 -0 0 -0 -0 0 0 -0 -0 0 -0 nan
nan -0 -0 -0 -1 -1 -1 -0 -0 -0 -0 -0 -0 -0 -0 -0 -0 -0 -1 -1 -0 -0 -1 -0 0 0 -0 -0 0 -0 0 -0 -0 0 -0 0 -0 -0 -0 -0 -0 -0 -0 nan
nan -0 -0 -0 -0 -0 -0 -0 -0 -0 -0 -0 -0 -0 -0 -1 -1 -0 -0 -0 -0 -1 -1 -0 -0 -0 0 -0 -0 0 -0 -0 -0 0 0 -0 -0 -0 -0 -0 -0 -0 0 nan
nan 0 0 -0 -0 -0 -0 -0 -0 -0 0 -0 -0 -0 -0 -0 -0 -1 -0 -1 -0 0 -0 -0 -0 -0 -0 -0 -0 -0 -0 -0 -0 0 0 0 -0 -0 -0 -0 0 -0 0 nan
nan 0 0 -0 -0 0 -0 -0 -0 -0 -0 -0 0 0 -0 0 -0 -0 -0 -0 -1 -0 0 0 -0 -0 -0 -0 -0 0 -0 -0 0 0 0 -0 -0 -0 -0 -0 -0 -0 -0 nan
nan 0 0 -0 0 -0 -0 0 -0 -0 -0 -0 -0 0 -0 0 0 -0 -1 -0 -0 -0 0 0 0 -0 -0 -0 -0 -0 -0 -0 0 0 0 0 -0 0 -0 -0 0 -0 -0 nan
nan -0 -0 0 0 0 -0 0 -0 0 -0 -0 -0 -0 -0 0 0 0 -0 -0 -0 -0 -0 -0 0 0 -0 0 -0 -0 0 -0 -0 -0 -0 -0 -0 -0 0 0 0 0 0 nan
nan -0 0 0 0 0 -0 -0 0 -0 -0 -1 -0 0 0 0 0 0 -0 -0 0 -0 -0 -1 -0 0 -0 -0 -0 -0 -0 -0 -0 0 0 0 0 0 0 0 0 0 0 nan
nan 0 0 0 0 0 -0 -0 0 0 0 -0 -0 -0 0 -0 0 -0 -0 0 0 -0 -0 -0 -0 0 -0 0 -0 0 -0 -0 -0 -0 -0 0 0 0 0 0 0 0 0 nan
nan 0 0 0 0 0 0 0 -0 -0 -0 -0 -1 -1 0 0 0 0 0 0 0 0 -0 -0 -0 0 0 0 -0 -0 -0 -0 -0 -0 -0 -0 -0 0 0 0 -0 -0 -0 nan
nan 0 0 0 0 0 0 -0 -0 -0 0 0 -0 -1 -0 0 -0 0 0 0 0 -0 -0 -1 -1 -0 0 0 -0 -0 -0 -0 -0 0 -0 0 0 0 0 0 -0 -0 -0 nan
nan -0 -0 0 -0 -0 -0 -0 0 0 0 0 -0 -1 -0 0 -0 -0 0 0 -0 -0 -0 -0 -0 -0 -0 0 -0 -0 -0 -0 0 0 0 -0 0 0 0 0 0 -0 -0 nan
nan 0 -0 -0 -0 -0 -0 -0 -0 0 -0 0 0 -0 -1 -0 -0 -0 -0 -0 -0 -0 -0 -0 -0 -0 -0 0 -0 -0 -0 0 0 0 0 -0 0 0 0 0 -0 -0 -0 nan
nan 0 -0 -0 -0 -0 -0 -0 -0 -0 -0 -0 0 0 -0 -1 -0 -0 -0 -0 -0 -0 -0 -0 0 0 -0 0 -0 -0 0 0 0 0 0 0 0 0 0 0 0 -0 -0 nan
nan -0 -0 -0 -0 -0 -0 -0 -0 -0 -0 0 -0 0 -0 -0 -0 -0 -0 -0 -0 -0 -0 0 0 -0 0 0 0 0 0 0 0 0 0 0 0 0 0 0 0 -0 -0 nan
nan 0 -0 -0 -0 -0 -0 -0 -0 -0 -0 -0 -0 -0 -0 -0 0 -0 -0 -0 -0 -0 -0 0 0 0 0 0 0 0 0 0 0 0 0 0 0 0 -0 -0 0 -0 -0 nan
nan -0 -0 -0 -0 -0 -0 -0 -0 0 -0 -0 0 0 -0 -0 -0 -0 -0 -0 -0 -0 0 0 0 0 -0 0 0 0 0 0 0 0 0 0 0 0 0 -0 -0 -0 -0 nan
nan -0 -0 -0 -0 -0 0 0 -0 -0 0 -0 -0 -0 -0 -0 -0 -0 -0 -0 -0 0 0 0 0 0 0 0 0 0 0 -0 0 0 0 0 -0 -0 0 0 -0 -0 -0 nan
nan -0 -0 -0 -0 -0 -0 -0 -0 -0 0 0 0 -0 -0 -0 -0 -0 -0 -0 0 -0 0 0 0 -0 0 0 0 0 0 0 -0 -0 -0 -0 -0 -0 -0 -0 -0 0 -0 nan
nan -0 0 -0 -0 0 0 -0 -0 -0 0 0 0 0 -0 -0 -0 -0 -0 0 0 -0 0 -0 -0 -0 0 0 0 -0 0 0 0 -0 -0 -0 -0 -0 -0 -0 -0 -0 -0 nan
nan -0 -0 -0 -0 -0 -0 -0 -0 0 -0 0 -0 -0 -0 -0 -0 -0 -0 0 -0 -0 -0 -0 -0 -0 0 0 0 -0 0 0 0 0 -0 -0 -0 0 -0 -0 -0 -0 -0 nan
nan nan nan nan nan nan nan nan nan nan nan nan nan nan nan nan nan nan nan nan nan nan nan nan nan nan nan nan nan nan nan nan nan nan nan nan nan nan nan nan nan nan nan nan
Wind_Speed
22 25 24 26 28 28 14 3 3 15 6 4 4 3 8 7 6 4 5 3 4 4 1 5 8 8 6 17 16 10 4 2 3 7 1 8 4 6 5 3 4 1 3 4
21 24 25 26 27 27 15 4 4 13 8 3 3 7 6 5 6 8 6 4 4 9 4 2 2 3 10 24 12 17 11 6 3 3 2 4 9 5 5 5 4 4 4 4
20 24 25 26 26 25 10 4 3 6 8 5 3 5 5 9 10 4 10 4 8 6 5 5 4 7 6 21 16 18 21 6 5 6 3 8 10 14 8 5 3 4 4 3
19 24 25 26 26 23 6 7 2 4 4 4 7 6 6 9 10 7 12 4 12 5 4 7 6 4 4 12 10 7 8 1 3 3 4 9 11 14 12 9 6 4 3 6
19 24 24 24 26 22 27 5 5 6 4 11 7 8 6 8 8 5 5 9 17 8 3 2 5 6 3 2 1 4 3 3 2 6 4 5 4 9 11 6 4 5 2 4
16 22 21 21 24 25 12 11 6 2 5 6 3 3 5 6 11 8 11 12 15 6 5 16 19 15 11 7 3 1 2 4 2 2 4 6 1 9 11 5 4 6 5 5
11 18 19 17 20 21 17 16 8 4 2 2 2 4 8 9 12 6 16 15 7 8 31 20 2 4 6 3 2 2 2 2 2 3 2 0 4 1 9 8 5 6 2 2
10 15 15 15 18 18 15 16 9 4 2 4 4 8 5 15 12 4 9 8 16 24 13 4 3 3 4 3 4 6 4 3 3 3 2 3 0 2 5 6 6 6 5 3
9 13 13 13 15 15 14 16 13 5 1 3 7 5 7 4 5 6 4 15 16 13 2 2 1 0 2 3 7 3 4 6 3 1 3 2 1 1 2 3 4 6 9 6
8 11 12 12 12 13 13 12 14 6 3 4 4 3 4 5 5 4 7 11 11 12 4 2 2 2 1 2 3 4 3 3 2 1 1 3 3 2 2 3 4 3 11 12
6 10 10 11 12 12 11 9 13 14 5 16 6 4 9 13 10 2 10 7 3 3 3 2 2 1 1 1 1 0 0 2 1 1 3 1 1 1 4 3 2 8 11 7
5 8 9 10 11 13 13 12 13 15 10 13 25 16 16 18 16 13 4 3 3 4 3 3 2 3 2 0 2 2 0 3 2 4 3 3 2 2 2 3 7 6 6 3
4 6 8 10 12 12 13 11 12 16 7 18 5 3 3 6 10 10 4 2 2 3 8 5 2 3 1 1 2 2 2 2 1 1 2 1 4 6 6 6 6 5 4 3
3 4 7 10 12 12 10 12 12 11 5 4 6 14 21 13 13 13 15 14 8 14 16 4 2 2 1 2 3 2 4 2 1 1 1 3 2 3 5 6 6 5 3 2
1 4 7 10 12 12 10 9 6 5 5 4 12 16 5 8 11 10 13 19 17 7 5 3 2 2 2 2 1 3 4 4 3 3 4 3 3 6 5 4 4 3 2 1
1 4 8 12 12 12 6 4 4 6 14 6 3 8 8 14 10 7 9 12 11 5 1 5 5 4 2 2 2 4 4 4 3 2 2 3 6 7 4 2 1 2 3 3
4 5 10 12 9 5 4 3 3 8 13 3 5 7 6 14 7 4 1 8 5 6 3 5 4 3 2 2 3 4 5 0 2 4 4 3 5 2 3 2 1 2 3 3
4 5 10 7 7 7 5 3 3 9 4 2 2 4 7 7 5 2 4 6 8 8 4 4 3 5 3 4 5 7 2 1 3 3 2 2 2 5 4 3 2 3 4 6
4 4 2 6 3 2 2 5 3 2 2 1 2 2 4 9 3 5 4 7 3 4 3 3 2 2 4 4 6 5 5 3 3 3 2 2 3 4 4 6 7 6 7 7
1 2 2 3 4 5 6 4 3 3 2 0 3 4 3 7 3 4 2 4 2 2 4 3 3 4 14 7 5 4 4 4 4 4 3 3 3 4 5 6 7 9 10 11
2 2 2 3 4 3 2 3 3 2 1 2 4 6 5 8 3 2 5 2 2 2 2 2 2 3 1 4 4 4 3 2 2 3 4 4 5 6 7 8 10 12 13 14
2 2 7 4 2 2 3 1 1 1 2 3 5 8 12 7 6 4 5 3 2 3 5 2 3 2 3 6 5 4 3 2 2 3 4 4 5 5 7 7 8 10 11 11
4 3 4 2 2 5 3 1 4 2 2 2 11 8 6 5 5 6 3 4 3 2 2 3 2 1 6 7 6 4 2 1 0 2 2 1 1 2 2 3 4 5 6 8
1 2 3 3 3 3 3 3 3 2 5 12 15 8 4 5 4 3 4 2 1 2 2 4 1 4 6 8 6 4 6 6 5 4 3 2 1 1 2 3 5 6 7 7
1 2 2 4 1 3 4 5 4 4 7 8 9 8 6 3 4 3 3 3 3 3 1 1 8 7 6 9 8 9 9 5 2 2 3 3 3 3 4 5 6 6 7 8
1 2 3 3 1 2 5 6 7 1 7 9 3 3 3 4 4 3 4 2 1 2 3 12 13 8 7 10 10 12 10 5 2 1 2 3 3 4 5 6 8 7 8 8
1 1 4 4 4 7 5 3 2 2 5 2 2 3 4 4 3 2 4 4 4 15 15 14 11 8 8 10 12 11 11 5 1 1 2 3 4 5 5 6 6 7 7 8
Wind_Direction
354 355 360 2 358 357 11 37 43 5 3 42 2 355 319 300 304 344 260 258 267 279 138 172 212 224 223 176 165 170 162 5 180 176 169 172 144 157 159 149 220 191 166 274
357 359 4 9 7 0 1 37 25 32 43 54 346 317 326 317 329 323 334 313 349 313 322 317 57 21 135 165 165 167 156 204 107 208 141 157 207 170 151 108 62 227 132 257
2 2 6 11 16 9 15 20 33 4 47 69 359 347 349 344 313 321 341 301 349 338 353 354 44 354 165 169 204 195 172 163 197 196 156 147 190 192 173 142 149 178 215 289
11 7 6 11 18 26 38 42 71 19 344 344 334 339 4 342 354 353 345 341 4 334 317 346 10 351 350 170 161 138 196 105 138 22 121 156 171 173 160 188 212 182 237 205
10 11 6 8 15 26 47 68 27 7 300 324 334 0 22 334 347 298 322 339 335 329 39 352 314 4 4 305 271 199 185 206 77 39 95 88 143 178 184 190 177 250 261 269
6 8 6 10 16 25 52 46 34 35 330 346 17 324 331 310 340 278 266 325 313 318 341 310 282 267 262 256 319 305 145 141 93 358 62 93 12 200 185 174 188 157 183 234
358 4 7 13 21 26 43 43 47 39 318 360 325 320 311 308 313 272 297 318 307 327 319 317 295 258 245 232 300 355 102 88 84 121 52 120 253 239 177 187 200 215 239 252
1 2 12 15 24 28 37 36 39 39 315 280 301 322 290 307 312 297 292 329 318 316 317 348 1 338 1 341 0 11 35 103 84 129 188 302 242 167 152 164 249 204 197 171
8 7 13 16 20 32 31 32 36 29 342 270 311 320 306 316 330 321 282 330 345 348 310 15 58 58 304 330 344 29 51 62 105 124 128 195 311 281 218 117 293 201 171 162
17 14 10 13 14 20 21 30 25 26 293 277 296 289 297 348 2 286 301 339 339 359 359 36 28 313 266 18 2 337 4 4 95 74 125 300 250 265 141 113 243 168 174 163
26 20 8 10 1 8 10 15 10 13 310 302 284 267 269 292 302 266 323 335 29 301 12 0 313 337 320 317 301 41 102 73 316 51 56 7 227 86 149 227 54 160 152 149
44 22 6 2 357 351 356 6 2 344 320 288 306 291 277 272 271 260 300 290 335 331 315 11 323 323 360 59 314 350 99 176 203 168 221 270 356 321 73 113 109 108 142 151
53 16 356 357 350 346 342 345 353 349 317 320 338 22 261 299 304 297 234 250 295 18 9 301 302 287 119 329 278 313 290 174 159 71 335 61 85 86 92 104 114 110 137 156
52 355 350 348 343 342 344 344 344 337 307 307 295 314 301 320 300 270 259 254 288 313 331 273 252 254 199 254 256 195 223 2 172 270 247 127 77 121 116 111 107 104 108 140
40 327 340 341 339 333 331 339 42 33 16 290 297 333 354 0 332 299 273 260 256 289 328 282 278 280 319 290 330 264 197 199 158 227 208 150 166 157 143 125 97 78 70 24
285 320 338 334 334 332 0 86 64 21 349 318 310 322 311 350 328 302 252 236 230 201 216 261 278 277 262 312 270 262 257 280 253 306 194 200 162 163 160 151 77 350 330 314
282 331 330 330 344 13 70 70 351 352 337 315 301 304 283 321 346 351 219 185 183 200 226 247 256 280 251 255 253 295 348 17 178 153 137 116 170 174 177 162 99 4 345 339
282 326 325 349 93 87 65 59 328 344 355 348 289 275 313 346 316 284 176 170 192 213 238 248 238 309 250 254 244 262 295 170 153 173 240 287 217 192 192 211 263 292 301 306
279 328 23 117 85 75 349 325 358 27 48 8 303 282 291 338 322 299 221 195 211 225 227 238 179 202 233 243 263 267 219 209 202 199 221 217 211 222 255 282 291 293 291 291
299 135 166 139 30 46 108 67 61 38 27 345 262 295 290 323 307 284 263 209 220 217 223 186 211 249 246 253 257 237 216 213 199 207 216 213 225 255 274 285 295 297 298 296
119 207 138 59 84 92 66 73 52 41 311 224 257 259 288 308 283 297 291 297 232 235 212 241 249 269 245 163 159 170 196 237 235 235 236 244 253 265 280 284 284 288 290 291
268 167 113 105 93 80 88 3 330 188 237 322 309 329 307 287 266 266 266 266 202 244 156 227 251 245 173 168 175 174 197 223 252 259 258 263 270 283 290 293 297 299 297 295
104 104 94 59 6 39 103 316 315 348 27 341 318 322 289 282 253 247 244 238 234 187 209 229 235 182 179 184 183 175 220 261 94 105 94 86 357 328 320 322 327 332 329 325
110 123 49 114 305 196 185 188 188 269 276 305 311 288 262 275 256 244 251 207 152 254 222 236 303 315 215 198 201 203 153 131 117 97 80 72 54 27 351 331 331 327 324 328
95 123 188 191 181 188 193 222 251 267 304 320 307 280 242 263 268 242 262 213 229 225 260 57 346 321 246 214 205 180 170 163 154 85 67 46 34 20 6 354 348 343 338 336
159 157 101 188 17 256 221 232 253 228 315 319 261 271 272 255 282 266 241 218 105 26 336 324 323 311 259 219 203 190 173 162 150 36 26 11 354 343 341 342 343 338 335 337
163 218 223 234 260 252 254 204 171 5 2 8 315 270 251 291 267 281 10 18 356 329 333 339 334 300 262 223 204 193 177 160 166 315 320 330 335 332 332 332 328 330 335 339
Height
1502 1497 1491 1485 1476 1469 1464 1463 1468 1466 1462 1461 1461 1461 1460 1455 1449 1445 1444 1443 1440 1435 1430 1432 1442 1436 1432 1434 1442 1450 1457 1464 1470 1452 1450 1452 1454 1460 1463 1481 1480 1493 1492 1464
1502 1496 1491 1484 1477 1471 1467 1466 1469 1468 1462 1469 1467 1464 1458 1456 1451 1450 1443 1441 1439 1434 1429 1429 1426 1421 1429 1433 1439 1441 1452 1464 1468 1452 1455 1452 1450 1454 1456 1464 1474 1487 1476 1460
1501 1496 1491 1485 1479 1473 1469 1471 1474 1469 1468 1471 1471 1468 1464 1459 1453 1450 1450 1445 1439 1437 1431 1430 1429 1428 1432 1435 1436 1439 1442 1441 1441 1440 1431 1436 1443 1446 1451 1457 1484 1474 1473 1450
1501 1497 1491 1486 1481 1476 1473 1474 1480 1483 1482 1474 1474 1472 1468 1464 1458 1452 1451 1446 1447 1446 1442 1437 1435 1431 1429 1432 1430 1428 1437 1433 1434 1432 1429 1432 1436 1443 1447 1460 1455 1462 1451 1453
1501 1497 1493 1487 1482 1478 1473 1478 1482 1482 1480 1479 1476 1474 1471 1468 1465 1464 1453 1452 1449 1446 1445 1445 1442 1440 1434 1431 1430 1428 1428 1434 1429 1438 1433 1434 1438 1438 1443 1450 1451 1450 1446 1447
1501 1498 1495 1489 1484 1481 1479 1482 1483 1484 1482 1482 1480 1479 1476 1471 1467 1460 1456 1455 1453 1445 1445 1442 1437 1437 1435 1433 1433 1428 1427 1432 1436 1452 1435 1437 1443 1441 1443 1445 1444 1443 1448 1442
1500 1498 1495 1491 1486 1484 1483 1483 1482 1483 1485 1483 1481 1480 1477 1470 1469 1464 1457 1454 1450 1446 1441 1435 1432 1432 1431 1431 1429 1427 1427 1430 1435 1449 1440 1454 1437 1433 1434 1440 1439 1439 1439 1438
1499 1497 1495 1491 1489 1487 1485 1485 1484 1484 1486 1483 1479 1477 1475 1468 1464 1459 1458 1453 1452 1447 1441 1439 1434 1432 1432 1430 1429 1428 1427 1431 1440 1445 1444 1439 1432 1433 1436 1437 1437 1436 1437 1439
1497 1496 1495 1492 1490 1489 1485 1484 1484 1485 1488 1483 1481 1479 1477 1474 1469 1462 1455 1451 1448 1447 1444 1444 1439 1452 1437 1435 1434 1429 1429 1432 1439 1449 1443 1437 1435 1433 1431 1432 1442 1431 1433 1436
1495 1495 1494 1492 1490 1489 1487 1485 1485 1484 1484 1480 1481 1480 1481 1479 1476 1473 1461 1456 1450 1449 1449 1448 1451 1444 1440 1442 1439 1439 1440 1441 1447 1443 1450 1442 1435 1432 1433 1442 1444 1432 1433 1436
1494 1494 1493 1492 1489 1488 1488 1487 1485 1485 1484 1478 1478 1478 1478 1477 1475 1475 1467 1459 1457 1453 1450 1451 1452 1448 1447 1444 1442 1440 1443 1447 1448 1445 1446 1447 1433 1433 1435 1436 1432 1432 1434 1436
1492 1493 1492 1491 1488 1486 1485 1485 1484 1484 1483 1478 1474 1471 1471 1471 1472 1473 1470 1470 1468 1463 1458 1454 1453 1451 1450 1451 1447 1442 1444 1443 1444 1444 1443 1435 1434 1434 1433 1433 1433 1434 1436 1437
1490 1490 1490 1489 1488 1486 1484 1482 1482 1482 1480 1472 1470 1471 1472 1473 1472 1472 1471 1468 1468 1467 1468 1464 1455 1454 1452 1450 1445 1442 1439 1439 1441 1439 1438 1436 1435 1435 1435 1435 1435 1437 1437 1438
1488 1488 1488 1487 1486 1484 1483 1482 1482 1482 1482 1482 1474 1472 1470 1470 1468 1468 1469 1467 1466 1467 1466 1462 1455 1455 1450 1449 1446 1445 1440 1438 1438 1439 1437 1437 1436 1436 1437 1437 1437 1438 1438 1439
1486 1486 1485 1485 1484 1483 1482 1480 1480 1481 1487 1483 1472 1468 1466 1465 1465 1465 1465 1467 1466 1466 1466 1461 1453 1451 1450 1447 1446 1444 1436 1436 1438 1438 1433 1434 1435 1437 1437 1437 1438 1439 1439 1439
1485 1484 1483 1483 1482 1480 1480 1480 1482 1481 1482 1479 1476 1470 1466 1463 1460 1457 1457 1460 1464 1464 1463 1460 1454 1450 1451 1450 1448 1434 1433 1433 1433 1432 1432 1433 1434 1436 1437 1438 1438 1439 1439 1439
1483 1481 1480 1479 1478 1478 1480 1481 1481 1480 1480 1480 1478 1471 1463 1461 1458 1457 1459 1458 1461 1462 1461 1457 1452 1450 1450 1447 1447 1433 1433 1432 1432 1432 1433 1434 1435 1436 1437 1438 1438 1439 1439 1439
1481 1478 1478 1477 1477 1478 1479 1479 1478 1478 1479 1480 1480 1470 1461 1459 1456 1455 1456 1458 1459 1458 1456 1452 1449 1448 1445 1441 1434 1434 1433 1433 1433 1433 1433 1434 1435 1436 1436 1437 1438 1438 1438 1438
1479 1476 1476 1478 1477 1477 1478 1477 1477 1477 1481 1480 1481 1479 1474 1461 1459 1461 1456 1454 1452 1453 1450 1449 1449 1446 1442 1434 1433 1433 1433 1433 1433 1434 1434 1434 1435 1435 1436 1436 1436 1437 1436 1436
1476 1475 1477 1476 1477 1476 1477 1478 1479 1480 1482 1481 1482 1480 1476 1470 1461 1458 1452 1451 1449 1446 1445 1445 1444 1438 1431 1431 1432 1433 1433 1433 1433 1433 1434 1434 1434 1435 1435 1435 1435 1435 1434 1434
1474 1475 1474 1476 1476 1477 1479 1479 1481 1482 1481 1482 1480 1478 1475 1471 1468 1463 1458 1449 1446 1443 1441 1440 1439 1432 1429 1430 1431 1432 1433 1433 1433 1433 1433 1433 1433 1433 1433 1433 1433 1433 1432 1431
1473 1473 1472 1476 1477 1478 1480 1483 1482 1480 1484 1481 1479 1477 1475 1469 1465 1463 1457 1449 1446 1440 1440 1438 1437 1429 1430 1430 1431 1432 1432 1432 1432 1432 1432 1432 1431 1431 1431 1431 1431 1430 1430 1428
1470 1470 1472 1475 1480 1485 1486 1489 1488 1486 1480 1481 1480 1477 1472 1464 1459 1454 1450 1444 1440 1438 1436 1435 1430 1430 1430 1430 1431 1431 1432 1432 1431 1432 1431 1431 1430 1430 1430 1430 1429 1429 1428 1426
1469 1469 1476 1479 1488 1479 1479 1480 1480 1478 1478 1477 1477 1476 1471 1465 1458 1450 1440 1435 1437 1437 1434 1432 1432 1430 1430 1430 1431 1431 1432 1432 1432 1432 1432 1431 1431 1430 1429 1429 1428 1428 1427 1425
1469 1469 1474 1478 1475 1475 1476 1477 1476 1476 1476 1476 1475 1472 1469 1463 1456 1444 1438 1432 1434 1430 1428 1429 1431 1430 1429 1430 1430 1430 1431 1432 1433 1433 1432 1431 1431 1430 1429 1428 1427 1426 1425 1424
1468 1468 1471 1472 1473 1473 1474 1473 1472 1473 1472 1472 1474 1471 1464 1457 1449 1440 1433 1428 1433 1433 1434 1432 1429 1428 1427 1428 1429 1430 1431 1432 1433 1432 1432 1431 1431 1430 1429 1427 1426 1426 1425 1423
1466 1468 1469 1470 1470 1471 1471 1470 1471 1471 1471 1472 1474 1470 1464 1456 1447 1436 1438 1440 1442 1440 1436 1432 1428 1427 1427 1427 1428 1429 1431 1432 1433 1432 1432 1431 1431 1430 1428 1427 1426 1425 1424 1422